Time,TemperatureF,DewpointF,PressureIn,WindDirection,WindDirectionDegrees,WindSpeedMPH,WindSpeedGustMPH,Humidity,HourlyPrecipIn,Conditions,Clouds,dailyrainin,SoftwareType,DateUTC
2013-04-09 00:00:00,46.0,41.2,29.94,NW,315,4.0,6.0,83,0.00,,,0.17,meteohub,2013-04-09 04:00:00,
2013-04-09 00:03:00,46.0,41.2,29.94,NW,315,4.0,4.0,83,0.00,,,0.17,meteohub,2013-04-09 04:03:00,
2013-04-09 00:05:00,46.0,41.2,29.94,NW,315,4.0,6.0,83,0.00,,,0.00,meteohub,2013-04-09 04:05:00,
2013-04-09 00:10:00,45.9,41.0,29.95,North,0,2.0,6.0,83,0.00,,,0.00,meteohub,2013-04-09 04:10:00,
2013-04-09 00:15:00,45.9,41.0,29.94,NE,45,3.0,6.0,83,0.00,,,0.00,meteohub,2013-04-09 04:15:00,
2013-04-09 00:20:00,45.7,40.8,29.94,NE,45,2.0,6.0,83,0.00,,,0.00,meteohub,2013-04-09 04:20:00,
2013-04-09 00:25:00,45.7,40.8,29.95,West,270,2.0,6.0,83,0.00,,,0.00,meteohub,2013-04-09 04:25:00,
2013-04-09 00:30:00,45.7,40.8,29.96,West,270,4.0,4.0,83,0.00,,,0.00,meteohub,2013-04-09 04:30:00,
2013-04-09 00:36:00,45.7,40.8,29.96,West,270,3.0,4.0,83,0.00,,,0.00,meteohub,2013-04-09 04:36:00,
2013-04-09 00:41:00,45.7,40.8,29.97,North,0,4.0,4.0,83,0.00,,,0.00,meteohub,2013-04-09 04:41:00,
2013-04-09 00:47:00,45.5,40.6,29.97,North,0,4.0,4.0,83,0.00,,,0.00,meteohub,2013-04-09 04:47:00,
2013-04-09 00:52:00,45.5,40.6,29.97,NW,315,2.0,5.0,83,0.00,,,0.00,meteohub,2013-04-09 04:52:00,
2013-04-09 00:57:00,45.5,40.6,29.97,NE,45,4.0,5.0,83,0.00,,,0.00,meteohub,2013-04-09 04:57:00,
2013-04-09 01:02:00,45.5,40.6,29.97,NW,315,2.0,5.0,83,0.00,,,0.00,meteohub,2013-04-09 05:02:00,
2013-04-09 01:08:00,45.5,40.6,29.97,NW,315,2.0,5.0,83,0.00,,,0.00,meteohub,2013-04-09 05:08:00,
2013-04-09 01:13:00,45.5,40.6,29.97,NW,315,2.0,5.0,83,0.00,,,0.00,meteohub,2013-04-09 05:13:00,
2013-04-09 01:18:00,45.5,40.6,29.98,North,0,4.0,4.0,83,0.00,,,0.00,meteohub,2013-04-09 05:18:00,
2013-04-09 01:23:00,45.3,40.5,29.98,SW,225,2.0,4.0,83,0.00,,,0.00,meteohub,2013-04-09 05:23:00,
2013-04-09 01:28:00,45.3,40.5,29.98,NW,315,2.0,4.0,83,0.00,,,0.00,meteohub,2013-04-09 05:28:00,
2013-04-09 01:33:00,45.3,40.5,29.99,NW,315,0.0,4.0,83,0.00,,,0.00,meteohub,2013-04-09 05:33:00,
2013-04-09 01:38:00,45.1,40.3,29.99,NW,315,2.0,2.0,83,0.00,,,0.00,meteohub,2013-04-09 05:38:00,
2013-04-09 01:44:00,45.1,40.3,29.99,North,0,3.0,3.0,83,0.00,,,0.00,meteohub,2013-04-09 05:44:00,
2013-04-09 01:49:00,45.0,40.1,29.99,North,0,3.0,5.0,83,0.00,,,0.00,meteohub,2013-04-09 05:49:00,
2013-04-09 01:54:00,45.0,40.1,29.99,North,0,4.0,5.0,83,0.00,,,0.00,meteohub,2013-04-09 05:54:00,
2013-04-09 01:59:00,44.8,40.3,29.99,NW,315,0.0,5.0,84,0.00,,,0.00,meteohub,2013-04-09 05:59:00,
2013-04-09 02:04:00,44.8,40.3,29.99,NW,315,0.0,4.0,84,0.00,,,0.00,meteohub,2013-04-09 06:04:00,
2013-04-09 02:12:00,44.8,40.3,29.99,North,0,4.0,4.0,84,0.00,,,0.00,meteohub,2013-04-09 06:12:00,
2013-04-09 02:17:00,44.6,40.1,29.99,NW,315,2.0,4.0,84,0.00,,,0.00,meteohub,2013-04-09 06:17:00,
2013-04-09 02:22:00,44.6,40.1,29.99,North,0,3.0,4.0,84,0.00,,,0.00,meteohub,2013-04-09 06:22:00,
2013-04-09 02:27:00,44.6,40.1,29.99,North,0,3.0,4.0,84,0.00,,,0.00,meteohub,2013-04-09 06:27:00,
2013-04-09 02:32:00,44.6,40.1,29.99,North,0,2.0,6.0,84,0.00,,,0.00,meteohub,2013-04-09 06:32:00,
2013-04-09 02:37:00,44.6,40.5,29.99,North,0,0.0,6.0,85,0.00,,,0.00,meteohub,2013-04-09 06:37:00,
2013-04-09 02:42:00,44.6,40.5,29.99,North,0,3.0,6.0,85,0.00,,,0.00,meteohub,2013-04-09 06:42:00,
2013-04-09 02:47:00,44.6,40.5,29.99,NW,315,0.0,3.0,85,0.00,,,0.00,meteohub,2013-04-09 06:47:00,
2013-04-09 02:52:00,44.6,40.5,29.99,WNW,293,2.0,4.0,85,0.00,,,0.00,meteohub,2013-04-09 06:52:00,
2013-04-09 02:57:00,44.4,40.5,29.99,NE,45,5.0,5.0,86,0.00,,,0.00,meteohub,2013-04-09 06:57:00,
2013-04-09 03:03:00,44.4,40.5,29.99,North,0,2.0,5.0,86,0.00,,,0.00,meteohub,2013-04-09 07:03:00,
2013-04-09 03:08:00,44.4,40.5,29.99,NW,315,2.0,5.0,86,0.00,,,0.00,meteohub,2013-04-09 07:08:00,
2013-04-09 03:13:00,44.4,40.5,29.99,NW,315,3.0,5.0,86,0.00,,,0.00,meteohub,2013-04-09 07:13:00,
2013-04-09 03:18:00,44.2,40.3,29.99,NE,45,4.0,4.0,86,0.00,,,0.00,meteohub,2013-04-09 07:18:00,
2013-04-09 03:23:00,44.1,40.1,29.99,NE,45,2.0,6.0,86,0.00,,,0.00,meteohub,2013-04-09 07:23:00,
2013-04-09 03:28:00,43.9,39.7,29.99,North,0,2.0,6.0,85,0.00,,,0.00,meteohub,2013-04-09 07:28:00,
2013-04-09 03:33:00,43.7,39.6,29.99,NW,315,3.0,6.0,85,0.00,,,0.00,meteohub,2013-04-09 07:33:00,
2013-04-09 03:38:00,43.7,39.6,29.99,NE,45,1.0,4.0,85,0.00,,,0.00,meteohub,2013-04-09 07:38:00,
2013-04-09 03:43:00,43.5,39.4,29.99,North,0,0.0,4.0,85,0.00,,,0.00,meteohub,2013-04-09 07:43:00,
2013-04-09 03:48:00,43.5,39.4,29.99,East,90,0.0,4.0,85,0.00,,,0.00,meteohub,2013-04-09 07:48:00,
2013-04-09 03:53:00,43.5,39.4,30.00,NE,45,2.0,3.0,85,0.00,,,0.00,meteohub,2013-04-09 07:53:00,
2013-04-09 03:58:00,43.3,39.2,29.99,NE,45,3.0,3.0,85,0.00,,,0.00,meteohub,2013-04-09 07:58:00,
2013-04-09 04:04:00,43.3,39.2,30.00,North,0,0.0,4.0,85,0.00,,,0.00,meteohub,2013-04-09 08:04:00,
2013-04-09 04:09:00,43.3,39.2,30.00,North,0,0.0,4.0,85,0.00,,,0.00,meteohub,2013-04-09 08:09:00,
2013-04-09 04:14:00,43.2,39.0,30.00,NE,45,2.0,4.0,85,0.00,,,0.00,meteohub,2013-04-09 08:14:00,
2013-04-09 04:19:00,43.2,39.0,30.00,North,0,2.0,4.0,85,0.00,,,0.00,meteohub,2013-04-09 08:19:00,
2013-04-09 04:24:00,43.2,39.0,30.00,North,0,0.0,3.0,85,0.00,,,0.00,meteohub,2013-04-09 08:24:00,
2013-04-09 04:30:00,43.2,39.0,29.99,North,0,0.0,3.0,85,0.00,,,0.00,meteohub,2013-04-09 08:30:00,
2013-04-09 04:35:00,43.2,39.0,29.99,NE,45,2.0,3.0,85,0.00,,,0.00,meteohub,2013-04-09 08:35:00,
2013-04-09 04:40:00,43.2,39.0,30.00,North,0,2.0,3.0,85,0.00,,,0.00,meteohub,2013-04-09 08:40:00,
2013-04-09 04:45:00,43.2,39.0,30.00,East,90,0.0,3.0,85,0.00,,,0.00,meteohub,2013-04-09 08:45:00,
2013-04-09 04:50:00,43.2,39.0,30.01,SW,225,0.0,3.0,85,0.00,,,0.00,meteohub,2013-04-09 08:50:00,
2013-04-09 04:55:00,43.2,39.2,30.01,NW,315,0.0,2.0,86,0.00,,,0.00,meteohub,2013-04-09 08:55:00,
2013-04-09 05:00:00,43.2,39.2,30.01,NW,315,0.0,2.0,86,0.00,,,0.00,meteohub,2013-04-09 09:00:00,
2013-04-09 05:06:00,43.2,39.2,30.01,NE,45,2.0,2.0,86,0.00,,,0.00,meteohub,2013-04-09 09:06:00,
2013-04-09 05:11:00,43.2,39.2,30.01,NE,45,2.0,3.0,86,0.00,,,0.00,meteohub,2013-04-09 09:11:00,
2013-04-09 05:16:00,43.2,39.2,30.01,North,0,0.0,3.0,86,0.00,,,0.00,meteohub,2013-04-09 09:16:00,
2013-04-09 05:21:00,43.2,39.2,30.02,NE,45,0.0,3.0,86,0.00,,,0.00,meteohub,2013-04-09 09:21:00,
2013-04-09 05:26:00,43.2,39.2,30.02,South,180,0.0,3.0,86,0.00,,,0.00,meteohub,2013-04-09 09:26:00,
2013-04-09 05:31:00,43.2,39.2,30.02,East,90,0.0,0.0,86,0.00,,,0.00,meteohub,2013-04-09 09:31:00,
2013-04-09 05:36:00,43.0,39.0,30.02,East,90,0.0,0.0,86,0.00,,,0.00,meteohub,2013-04-09 09:36:00,
2013-04-09 05:42:00,43.0,39.0,30.02,ENE,68,0.0,0.0,86,0.00,,,0.00,meteohub,2013-04-09 09:42:00,
2013-04-09 05:47:00,42.8,38.8,30.03,NW,315,0.0,0.0,86,0.00,,,0.00,meteohub,2013-04-09 09:47:00,
2013-04-09 05:52:00,42.8,38.8,30.03,NE,45,0.0,0.0,86,0.00,,,0.00,meteohub,2013-04-09 09:52:00,
2013-04-09 05:57:00,42.6,39.0,30.03,North,0,0.0,0.0,87,0.00,,,0.00,meteohub,2013-04-09 09:57:00,
2013-04-09 06:02:00,42.6,39.0,30.04,North,0,0.0,0.0,87,0.00,,,0.00,meteohub,2013-04-09 10:02:00,
2013-04-09 06:07:00,42.6,39.0,30.04,North,0,0.0,0.0,87,0.00,,,0.00,meteohub,2013-04-09 10:07:00,
2013-04-09 06:12:00,42.6,39.0,30.04,East,90,0.0,0.0,87,0.00,,,0.00,meteohub,2013-04-09 10:12:00,
2013-04-09 06:17:00,42.6,39.4,30.04,NE,45,0.0,0.0,88,0.00,,,0.00,meteohub,2013-04-09 10:17:00,
2013-04-09 06:23:00,42.6,39.4,30.04,NE,45,0.0,0.0,88,0.00,,,0.00,meteohub,2013-04-09 10:23:00,
2013-04-09 06:28:00,42.6,39.4,30.04,West,270,0.0,0.0,88,0.00,,,0.00,meteohub,2013-04-09 10:28:00,
2013-04-09 06:33:00,42.4,39.2,30.04,East,90,0.0,0.0,88,0.00,,,0.00,meteohub,2013-04-09 10:33:00,
2013-04-09 06:38:00,42.4,39.2,30.04,NE,45,0.0,0.0,88,0.00,,,0.00,meteohub,2013-04-09 10:38:00,
2013-04-09 06:44:00,42.4,39.2,30.04,SW,225,0.0,0.0,88,0.00,,,0.00,meteohub,2013-04-09 10:44:00,
2013-04-09 06:50:00,42.4,39.2,30.04,East,90,0.0,0.0,88,0.00,,,0.00,meteohub,2013-04-09 10:50:00,
2013-04-09 06:55:00,42.4,39.2,30.03,East,90,0.0,0.0,88,0.00,,,0.00,meteohub,2013-04-09 10:55:00,
2013-04-09 07:00:00,42.4,39.2,30.03,NE,45,0.0,0.0,88,0.00,,,0.00,meteohub,2013-04-09 11:00:00,
2013-04-09 07:06:00,42.3,39.0,30.02,East,90,2.0,0.0,88,0.00,,,0.00,meteohub,2013-04-09 11:06:00,
2013-04-09 07:11:00,42.3,39.0,30.03,East,90,1.0,2.0,88,0.00,,,0.00,meteohub,2013-04-09 11:11:00,
2013-04-09 07:16:00,42.3,39.0,30.03,NE,45,2.0,4.0,88,0.00,,,0.00,meteohub,2013-04-09 11:16:00,
2013-04-09 07:21:00,42.1,39.0,30.03,NE,45,0.0,4.0,89,0.00,,,0.00,meteohub,2013-04-09 11:21:00,
2013-04-09 07:26:00,42.1,39.0,30.04,NE,45,0.0,4.0,89,0.00,,,0.00,meteohub,2013-04-09 11:26:00,
2013-04-09 07:31:00,42.1,39.0,30.03,East,90,0.0,2.0,89,0.00,,,0.00,meteohub,2013-04-09 11:31:00,
2013-04-09 07:37:00,42.1,39.0,30.04,SE,135,0.0,2.0,89,0.00,,,0.00,meteohub,2013-04-09 11:37:00,
2013-04-09 07:42:00,42.1,39.0,30.03,NE,45,2.0,2.0,89,0.00,,,0.00,meteohub,2013-04-09 11:42:00,
2013-04-09 07:47:00,42.1,39.0,30.03,East,90,2.0,2.0,89,0.00,,,0.00,meteohub,2013-04-09 11:47:00,
2013-04-09 07:52:00,42.1,39.0,30.03,East,90,3.0,3.0,89,0.00,,,0.00,meteohub,2013-04-09 11:52:00,
2013-04-09 07:57:00,42.1,39.0,30.03,West,270,1.0,3.0,89,0.00,,,0.00,meteohub,2013-04-09 11:57:00,
2013-04-09 08:02:00,42.1,39.0,30.04,NE,45,0.0,3.0,89,0.00,,,0.00,meteohub,2013-04-09 12:02:00,
2013-04-09 08:07:00,42.1,39.0,30.04,SW,225,2.0,3.0,89,0.00,,,0.00,meteohub,2013-04-09 12:07:00,
2013-04-09 08:13:00,42.1,39.0,30.04,East,90,3.0,3.0,89,0.00,,,0.00,meteohub,2013-04-09 12:13:00,
2013-04-09 08:18:00,42.3,39.2,30.04,North,0,2.0,3.0,89,0.00,,,0.00,meteohub,2013-04-09 12:18:00,
2013-04-09 08:23:00,42.3,39.6,30.04,East,90,1.0,3.0,90,0.00,,,0.00,meteohub,2013-04-09 12:23:00,
2013-04-09 08:28:00,42.4,39.7,30.04,NE,45,0.0,3.0,90,0.00,,,0.00,meteohub,2013-04-09 12:28:00,
2013-04-09 08:33:00,42.4,39.7,30.04,East,90,1.0,3.0,90,0.00,,,0.00,meteohub,2013-04-09 12:33:00,
2013-04-09 08:38:00,42.6,39.9,30.04,East,90,4.0,4.0,90,0.00,,,0.00,meteohub,2013-04-09 12:38:00,
2013-04-09 08:43:00,42.8,39.7,30.03,NE,45,3.0,4.0,89,0.00,,,0.00,meteohub,2013-04-09 12:43:00,
2013-04-09 08:49:00,42.8,39.7,30.04,East,90,1.0,4.0,89,0.00,,,0.00,meteohub,2013-04-09 12:49:00,
2013-04-09 08:54:00,43.0,39.9,30.03,NE,45,2.0,4.0,89,0.00,,,0.00,meteohub,2013-04-09 12:54:00,
2013-04-09 08:59:00,43.0,39.9,30.04,East,90,3.0,4.0,89,0.00,,,0.00,meteohub,2013-04-09 12:59:00,
2013-04-09 09:05:00,43.0,39.9,30.03,NE,45,4.0,4.0,89,0.00,,,0.00,meteohub,2013-04-09 13:05:00,
2013-04-09 09:10:00,43.2,40.1,30.03,East,90,2.0,4.0,89,0.00,,,0.00,meteohub,2013-04-09 13:10:00,
2013-04-09 09:15:00,43.3,40.3,30.03,East,90,2.0,4.0,89,0.00,,,0.00,meteohub,2013-04-09 13:15:00,
2013-04-09 09:20:00,43.5,40.5,30.02,NE,45,2.0,4.0,89,0.00,,,0.00,meteohub,2013-04-09 13:20:00,
2013-04-09 09:25:00,43.7,40.6,30.02,NE,45,2.0,4.0,89,0.00,,,0.00,meteohub,2013-04-09 13:25:00,
2013-04-09 09:30:00,43.9,40.8,30.02,NE,45,2.0,4.0,89,0.00,,,0.00,meteohub,2013-04-09 13:30:00,
2013-04-09 09:35:00,44.2,41.2,30.02,NE,45,3.0,4.0,89,0.00,,,0.00,meteohub,2013-04-09 13:35:00,
2013-04-09 09:40:00,44.4,41.2,30.01,NE,45,2.0,4.0,88,0.00,,,0.00,meteohub,2013-04-09 13:40:00,
2013-04-09 09:45:00,44.6,41.0,30.01,SW,225,2.0,5.0,87,0.00,,,0.00,meteohub,2013-04-09 13:45:00,
2013-04-09 09:51:00,44.6,41.0,30.01,South,180,1.0,5.0,87,0.00,,,0.00,meteohub,2013-04-09 13:51:00,
2013-04-09 09:56:00,45.3,41.7,30.01,East,90,2.0,5.0,87,0.00,,,0.00,meteohub,2013-04-09 13:56:00,
2013-04-09 10:01:00,45.9,41.9,30.01,East,90,3.0,5.0,86,0.00,,,0.00,meteohub,2013-04-09 14:01:00,
2013-04-09 10:07:00,46.4,42.4,30.01,South,180,4.0,4.0,86,0.00,,,0.00,meteohub,2013-04-09 14:07:00,
2013-04-09 10:12:00,46.8,42.4,30.01,South,180,3.0,5.0,85,0.00,,,0.00,meteohub,2013-04-09 14:12:00,
2013-04-09 10:17:00,47.1,42.8,30.01,NE,45,3.0,7.0,85,0.00,,,0.00,meteohub,2013-04-09 14:17:00,
2013-04-09 10:22:00,48.0,43.3,30.01,East,90,2.0,7.0,84,0.00,,,0.00,meteohub,2013-04-09 14:22:00,
2013-04-09 10:27:00,48.7,43.2,30.01,South,180,4.0,7.0,81,0.00,,,0.00,meteohub,2013-04-09 14:27:00,
2013-04-09 10:32:00,49.3,43.3,30.02,North,0,4.0,7.0,80,0.00,,,0.00,meteohub,2013-04-09 14:32:00,
2013-04-09 10:38:00,50.0,43.3,30.02,SW,225,5.0,7.0,78,0.00,,,0.00,meteohub,2013-04-09 14:38:00,
2013-04-09 10:43:00,50.5,43.3,30.02,SE,135,4.0,6.0,76,0.00,,,0.00,meteohub,2013-04-09 14:43:00,
2013-04-09 10:48:00,50.7,43.2,30.02,South,180,4.0,5.0,75,0.00,,,0.00,meteohub,2013-04-09 14:48:00,
2013-04-09 10:53:00,50.7,42.8,30.02,NE,45,4.0,6.0,74,0.00,,,0.00,meteohub,2013-04-09 14:53:00,
2013-04-09 10:58:00,50.7,42.8,30.03,SE,135,4.0,6.0,74,0.00,,,0.00,meteohub,2013-04-09 14:58:00,
2013-04-09 11:04:00,50.9,43.0,30.03,South,180,4.0,5.0,74,0.00,,,0.00,meteohub,2013-04-09 15:04:00,
2013-04-09 11:09:00,50.7,42.4,30.02,NE,45,4.0,5.0,73,0.00,,,0.00,meteohub,2013-04-09 15:09:00,
2013-04-09 11:14:00,50.7,42.4,30.02,North,0,5.0,5.0,73,0.00,,,0.00,meteohub,2013-04-09 15:14:00,
2013-04-09 11:19:00,50.7,42.4,30.02,SE,135,4.0,8.0,73,0.00,,,0.00,meteohub,2013-04-09 15:19:00,
2013-04-09 11:24:00,50.7,42.4,30.02,SW,225,4.0,8.0,73,0.00,,,0.00,meteohub,2013-04-09 15:24:00,
2013-04-09 11:29:00,50.4,42.1,30.01,South,180,4.0,8.0,73,0.00,,,0.00,meteohub,2013-04-09 15:29:00,
2013-04-09 11:34:00,50.2,41.9,30.01,NW,315,2.0,5.0,73,0.00,,,0.00,meteohub,2013-04-09 15:34:00,
2013-04-09 11:39:00,50.2,41.9,30.02,South,180,4.0,5.0,73,0.00,,,0.00,meteohub,2013-04-09 15:39:00,
2013-04-09 11:45:00,50.0,41.7,30.01,North,0,4.0,5.0,73,0.00,,,0.00,meteohub,2013-04-09 15:45:00,
2013-04-09 11:50:00,49.8,41.9,29.99,SE,135,3.0,5.0,74,0.00,,,0.00,meteohub,2013-04-09 15:50:00,
2013-04-09 11:56:00,49.6,42.1,29.98,SE,135,4.0,6.0,75,0.00,,,0.00,meteohub,2013-04-09 15:56:00,
2013-04-09 12:01:00,49.3,42.1,29.98,SE,135,3.0,6.0,76,0.01,,,0.01,meteohub,2013-04-09 16:01:00,
2013-04-09 12:06:00,48.9,42.4,29.99,NE,45,3.0,6.0,78,0.01,,,0.01,meteohub,2013-04-09 16:06:00,
2013-04-09 12:12:00,48.4,42.3,29.99,SW,225,2.0,4.0,79,0.01,,,0.01,meteohub,2013-04-09 16:12:00,
2013-04-09 12:17:00,48.4,42.4,29.99,North,0,2.0,4.0,80,0.01,,,0.01,meteohub,2013-04-09 16:17:00,
2013-04-09 12:22:00,48.2,42.3,29.98,East,90,3.0,4.0,80,0.01,,,0.01,meteohub,2013-04-09 16:22:00,
2013-04-09 12:27:00,48.0,42.4,29.97,NE,45,2.0,4.0,81,0.01,,,0.01,meteohub,2013-04-09 16:27:00,
2013-04-09 12:32:00,47.8,42.6,29.98,East,90,2.0,4.0,82,0.01,,,0.01,meteohub,2013-04-09 16:32:00,
2013-04-09 12:37:00,47.8,42.6,29.97,SW,225,2.0,4.0,82,0.01,,,0.01,meteohub,2013-04-09 16:37:00,
2013-04-09 12:42:00,47.7,42.4,29.96,NE,45,3.0,4.0,82,0.01,,,0.01,meteohub,2013-04-09 16:42:00,
2013-04-09 12:48:00,47.7,42.4,29.96,North,0,4.0,4.0,82,0.01,,,0.01,meteohub,2013-04-09 16:48:00,
2013-04-09 12:53:00,47.5,42.3,29.96,SW,225,5.0,5.0,82,0.01,,,0.01,meteohub,2013-04-09 16:53:00,
2013-04-09 12:58:00,47.5,41.9,29.96,East,90,4.0,5.0,81,0.01,,,0.01,meteohub,2013-04-09 16:58:00,
2013-04-09 13:03:00,47.3,41.7,29.96,South,180,2.0,5.0,81,0.00,,,0.01,meteohub,2013-04-09 17:03:00,
2013-04-09 13:09:00,47.3,41.7,29.96,NW,315,2.0,5.0,81,0.00,,,0.01,meteohub,2013-04-09 17:09:00,
2013-04-09 13:14:00,47.3,41.7,29.96,NE,45,2.0,4.0,81,0.00,,,0.01,meteohub,2013-04-09 17:14:00,
2013-04-09 13:19:00,47.3,42.1,29.96,NE,45,2.0,4.0,82,0.00,,,0.01,meteohub,2013-04-09 17:19:00,
2013-04-09 13:24:00,47.5,42.3,29.95,North,0,2.0,4.0,82,0.00,,,0.01,meteohub,2013-04-09 17:24:00,
2013-04-09 13:29:00,47.5,42.3,29.94,East,90,2.0,4.0,82,0.00,,,0.01,meteohub,2013-04-09 17:29:00,
2013-04-09 13:35:00,47.5,42.3,29.94,SE,135,3.0,4.0,82,0.00,,,0.01,meteohub,2013-04-09 17:35:00,
2013-04-09 13:40:00,47.7,42.4,29.94,North,0,3.0,4.0,82,0.00,,,0.01,meteohub,2013-04-09 17:40:00,
2013-04-09 13:45:00,47.7,42.1,29.94,East,90,2.0,4.0,81,0.00,,,0.01,meteohub,2013-04-09 17:45:00,
2013-04-09 13:50:00,48.4,42.4,29.93,East,90,5.0,5.0,80,0.00,,,0.01,meteohub,2013-04-09 17:50:00,
2013-04-09 13:55:00,48.2,42.3,29.93,East,90,2.0,4.0,80,0.00,,,0.01,meteohub,2013-04-09 17:55:00,
2013-04-09 14:00:00,48.7,42.8,29.93,SE,135,3.0,5.0,80,0.00,,,0.01,meteohub,2013-04-09 18:00:00,
2013-04-09 14:05:00,49.1,42.8,29.92,East,90,2.0,5.0,79,0.00,,,0.01,meteohub,2013-04-09 18:05:00,
2013-04-09 14:11:00,49.5,43.2,29.92,NE,45,2.0,6.0,79,0.00,,,0.01,meteohub,2013-04-09 18:11:00,
2013-04-09 14:16:00,49.6,43.3,29.92,East,90,3.0,6.0,79,0.00,,,0.01,meteohub,2013-04-09 18:16:00,
2013-04-09 14:21:00,49.6,43.0,29.91,North,0,2.0,4.0,78,0.00,,,0.01,meteohub,2013-04-09 18:21:00,
2013-04-09 14:27:00,49.6,43.0,29.91,East,90,3.0,4.0,78,0.00,,,0.01,meteohub,2013-04-09 18:27:00,
2013-04-09 14:32:00,49.8,43.2,29.90,NE,45,3.0,4.0,78,0.00,,,0.01,meteohub,2013-04-09 18:32:00,
2013-04-09 14:37:00,50.0,43.2,29.90,East,90,3.0,3.0,77,0.00,,,0.01,meteohub,2013-04-09 18:37:00,
2013-04-09 14:42:00,50.2,43.3,29.90,SW,225,2.0,5.0,77,0.00,,,0.01,meteohub,2013-04-09 18:42:00,
2013-04-09 14:47:00,50.4,43.3,29.90,East,90,4.0,5.0,77,0.00,,,0.01,meteohub,2013-04-09 18:47:00,
2013-04-09 14:52:00,50.4,43.2,29.89,SW,225,2.0,5.0,76,0.00,,,0.01,meteohub,2013-04-09 18:52:00,
2013-04-09 14:57:00,50.4,43.2,29.90,East,90,3.0,4.0,76,0.00,,,0.01,meteohub,2013-04-09 18:57:00,
2013-04-09 15:02:00,50.5,43.3,29.89,East,90,2.0,4.0,76,0.00,,,0.01,meteohub,2013-04-09 19:02:00,
2013-04-09 15:07:00,50.5,43.0,29.89,South,180,3.0,4.0,75,0.00,,,0.01,meteohub,2013-04-09 19:07:00,
2013-04-09 15:12:00,50.7,43.2,29.88,South,180,2.0,4.0,75,0.00,,,0.01,meteohub,2013-04-09 19:12:00,
2013-04-09 15:17:00,50.9,43.3,29.88,NE,45,3.0,4.0,75,0.00,,,0.01,meteohub,2013-04-09 19:17:00,
2013-04-09 15:23:00,50.9,43.3,29.88,NE,45,2.0,4.0,75,0.00,,,0.01,meteohub,2013-04-09 19:23:00,
2013-04-09 15:28:00,51.1,43.5,29.88,East,90,3.0,4.0,75,0.00,,,0.01,meteohub,2013-04-09 19:28:00,
2013-04-09 15:33:00,51.4,43.7,29.88,South,180,2.0,4.0,75,0.00,,,0.01,meteohub,2013-04-09 19:33:00,
2013-04-09 15:38:00,51.6,43.9,29.88,South,180,3.0,3.0,75,0.00,,,0.01,meteohub,2013-04-09 19:38:00,
2013-04-09 15:44:00,52.0,43.5,29.88,SW,225,2.0,3.0,73,0.00,,,0.01,meteohub,2013-04-09 19:44:00,
2013-04-09 15:49:00,52.2,43.7,29.88,East,90,2.0,3.0,73,0.00,,,0.01,meteohub,2013-04-09 19:49:00,
2013-04-09 15:54:00,52.3,43.9,29.88,North,0,0.0,3.0,73,0.00,,,0.01,meteohub,2013-04-09 19:54:00,
2013-04-09 15:59:00,52.5,44.1,29.88,East,90,0.0,3.0,73,0.00,,,0.01,meteohub,2013-04-09 19:59:00,
2013-04-09 16:05:00,52.7,44.2,29.88,SW,225,1.0,3.0,73,0.00,,,0.01,meteohub,2013-04-09 20:05:00,
2013-04-09 16:10:00,52.7,43.9,29.88,NW,315,1.0,2.0,72,0.00,,,0.01,meteohub,2013-04-09 20:10:00,
2013-04-09 16:17:00,52.9,44.1,29.88,North,0,0.0,3.0,72,0.00,,,0.01,meteohub,2013-04-09 20:17:00,
2013-04-09 16:22:00,53.1,44.2,29.88,NE,45,2.0,3.0,72,0.00,,,0.01,meteohub,2013-04-09 20:22:00,
2013-04-09 16:27:00,53.2,44.4,29.87,NE,45,2.0,3.0,72,0.00,,,0.01,meteohub,2013-04-09 20:27:00,
2013-04-09 16:32:00,53.4,44.6,29.87,East,90,3.0,3.0,72,0.00,,,0.01,meteohub,2013-04-09 20:32:00,
2013-04-09 16:37:00,53.4,44.2,29.87,SE,135,1.0,3.0,71,0.00,,,0.01,meteohub,2013-04-09 20:37:00,
2013-04-09 16:42:00,53.4,44.2,29.87,SE,135,2.0,3.0,71,0.00,,,0.01,meteohub,2013-04-09 20:42:00,
2013-04-09 16:47:00,53.6,44.1,29.86,SE,135,1.0,3.0,70,0.00,,,0.01,meteohub,2013-04-09 20:47:00,
2013-04-09 16:53:00,53.6,44.1,29.86,NE,45,1.0,3.0,70,0.00,,,0.01,meteohub,2013-04-09 20:53:00,
2013-04-09 16:58:00,53.6,44.1,29.86,East,90,0.0,3.0,70,0.00,,,0.01,meteohub,2013-04-09 20:58:00,
2013-04-09 17:03:00,53.6,44.1,29.85,NE,45,0.0,3.0,70,0.00,,,0.01,meteohub,2013-04-09 21:03:00,
2013-04-09 17:08:00,53.2,44.1,29.85,East,90,0.0,3.0,71,0.00,,,0.01,meteohub,2013-04-09 21:08:00,
2013-04-09 17:14:00,53.2,44.1,29.85,East,90,0.0,2.0,71,0.00,,,0.01,meteohub,2013-04-09 21:14:00,
2013-04-09 17:19:00,53.1,44.2,29.85,East,90,0.0,0.0,72,0.00,,,0.01,meteohub,2013-04-09 21:19:00,
2013-04-09 17:24:00,53.1,44.2,29.85,NE,45,0.0,0.0,72,0.00,,,0.01,meteohub,2013-04-09 21:24:00,
2013-04-09 17:29:00,52.9,44.1,29.85,NE,45,0.0,2.0,72,0.00,,,0.01,meteohub,2013-04-09 21:29:00,
2013-04-09 17:35:00,52.7,43.9,29.85,East,90,0.0,2.0,72,0.00,,,0.01,meteohub,2013-04-09 21:35:00,
2013-04-09 17:40:00,52.7,44.2,29.85,East,90,0.0,0.0,73,0.00,,,0.01,meteohub,2013-04-09 21:40:00,
2013-04-09 17:45:00,52.7,44.2,29.85,East,90,0.0,0.0,73,0.00,,,0.01,meteohub,2013-04-09 21:45:00,
2013-04-09 17:50:00,52.5,44.1,29.85,East,90,0.0,0.0,73,0.00,,,0.01,meteohub,2013-04-09 21:50:00,
2013-04-09 17:55:00,52.3,43.9,29.85,East,90,4.0,4.0,73,0.00,,,0.01,meteohub,2013-04-09 21:55:00,
2013-04-09 18:01:00,52.3,43.9,29.85,East,90,2.0,4.0,73,0.00,,,0.01,meteohub,2013-04-09 22:01:00,
2013-04-09 18:06:00,52.2,44.1,29.85,East,90,2.0,4.0,74,0.00,,,0.01,meteohub,2013-04-09 22:06:00,
2013-04-09 18:11:00,52.2,44.1,29.84,NE,45,0.0,4.0,74,0.00,,,0.01,meteohub,2013-04-09 22:11:00,
2013-04-09 18:17:00,52.2,44.1,29.85,West,270,0.0,2.0,74,0.00,,,0.01,meteohub,2013-04-09 22:17:00,
2013-04-09 18:22:00,52.0,43.9,29.86,NE,45,0.0,2.0,74,0.00,,,0.01,meteohub,2013-04-09 22:22:00,
2013-04-09 18:27:00,52.0,43.9,29.86,East,90,1.0,0.0,74,0.00,,,0.01,meteohub,2013-04-09 22:27:00,
2013-04-09 18:32:00,51.8,43.7,29.86,ESE,113,2.0,2.0,74,0.00,,,0.01,meteohub,2013-04-09 22:32:00,
2013-04-09 18:37:00,51.6,43.9,29.86,East,90,2.0,3.0,75,0.00,,,0.01,meteohub,2013-04-09 22:37:00,
2013-04-09 18:42:00,51.4,44.1,29.86,East,90,2.0,3.0,76,0.00,,,0.01,meteohub,2013-04-09 22:42:00,
2013-04-09 18:47:00,51.1,43.7,29.86,East,90,1.0,3.0,76,0.00,,,0.01,meteohub,2013-04-09 22:47:00,
2013-04-09 18:52:00,50.9,43.9,29.86,WSW,248,0.0,2.0,77,0.01,,,0.02,meteohub,2013-04-09 22:52:00,
2013-04-09 18:57:00,50.7,44.1,29.87,North,0,0.0,2.0,78,0.01,,,0.02,meteohub,2013-04-09 22:57:00,
2013-04-09 19:02:00,50.4,44.4,29.89,North,0,3.0,3.0,80,0.01,,,0.02,meteohub,2013-04-09 23:02:00,
2013-04-09 19:07:00,49.6,45.0,29.88,NE,45,2.0,4.0,84,0.01,,,0.02,meteohub,2013-04-09 23:07:00,
2013-04-09 19:12:00,49.5,44.8,29.86,North,0,2.0,4.0,84,0.01,,,0.02,meteohub,2013-04-09 23:12:00,
2013-04-09 19:18:00,49.5,44.8,29.87,North,0,0.0,4.0,84,0.01,,,0.02,meteohub,2013-04-09 23:18:00,
2013-04-09 19:23:00,49.5,44.8,29.87,North,0,0.0,2.0,84,0.01,,,0.02,meteohub,2013-04-09 23:23:00,
2013-04-09 19:28:00,48.9,44.2,29.86,East,90,0.0,2.0,84,0.01,,,0.02,meteohub,2013-04-09 23:28:00,
2013-04-09 19:33:00,48.7,44.4,29.85,East,90,2.0,0.0,85,0.01,,,0.02,meteohub,2013-04-09 23:33:00,
2013-04-09 19:38:00,48.6,44.2,29.85,East,90,3.0,3.0,85,0.01,,,0.02,meteohub,2013-04-09 23:38:00,
2013-04-09 19:44:00,48.4,44.1,29.86,NE,45,2.0,3.0,85,0.01,,,0.02,meteohub,2013-04-09 23:44:00,
2013-04-09 19:49:00,48.2,43.5,29.86,North,0,2.0,3.0,84,0.01,,,0.02,meteohub,2013-04-09 23:49:00,
2013-04-09 19:54:00,48.0,44.1,29.86,NE,45,2.0,3.0,86,0.00,,,0.02,meteohub,2013-04-09 23:54:00,
2013-04-09 19:59:00,47.7,43.7,29.86,SE,135,0.0,3.0,86,0.00,,,0.02,meteohub,2013-04-09 23:59:00,
2013-04-09 20:05:00,47.7,43.7,29.86,SE,135,0.0,2.0,86,0.00,,,0.02,meteohub,2013-04-10 00:05:00,
2013-04-09 20:10:00,47.5,43.5,29.85,East,90,0.0,2.0,86,0.00,,,0.02,meteohub,2013-04-10 00:10:00,
2013-04-09 20:15:00,47.5,43.5,29.86,NE,45,0.0,0.0,86,0.00,,,0.02,meteohub,2013-04-10 00:15:00,
2013-04-09 20:20:00,47.3,43.3,29.86,NE,45,0.0,0.0,86,0.00,,,0.02,meteohub,2013-04-10 00:20:00,
2013-04-09 20:25:00,47.3,43.3,29.86,North,0,0.0,0.0,86,0.00,,,0.02,meteohub,2013-04-10 00:25:00,
2013-04-09 20:30:00,47.1,43.2,29.89,NE,45,4.0,0.0,86,0.00,,,0.02,meteohub,2013-04-10 00:30:00,
2013-04-09 20:36:00,47.1,43.5,29.90,North,0,4.0,5.0,87,0.00,,,0.02,meteohub,2013-04-10 00:36:00,
2013-04-09 20:41:00,47.1,43.5,29.90,NE,45,3.0,5.0,87,0.00,,,0.02,meteohub,2013-04-10 00:41:00,
2013-04-09 20:46:00,46.9,43.3,29.91,North,0,5.0,5.0,87,0.00,,,0.02,meteohub,2013-04-10 00:46:00,
2013-04-09 20:51:00,46.9,43.5,29.90,North,0,0.0,6.0,88,0.00,,,0.02,meteohub,2013-04-10 00:51:00,
2013-04-09 20:57:00,46.8,43.3,29.92,East,90,4.0,6.0,88,0.00,,,0.02,meteohub,2013-04-10 00:57:00,
2013-04-09 21:02:00,46.8,43.3,29.89,NE,45,4.0,5.0,88,0.00,,,0.02,meteohub,2013-04-10 01:02:00,
2013-04-09 21:07:00,46.8,43.3,29.87,South,180,3.0,4.0,88,0.00,,,0.02,meteohub,2013-04-10 01:07:00,
2013-04-09 21:12:00,46.8,43.3,29.87,NE,45,4.0,4.0,88,0.00,,,0.02,meteohub,2013-04-10 01:12:00,
2013-04-09 21:17:00,46.8,43.3,29.92,North,0,7.0,7.0,88,0.00,,,0.02,meteohub,2013-04-10 01:17:00,
2013-04-09 21:22:00,46.8,43.3,29.92,North,0,4.0,7.0,88,0.00,,,0.02,meteohub,2013-04-10 01:22:00,
2013-04-09 21:27:00,46.8,43.3,29.91,NE,45,4.0,7.0,88,0.00,,,0.02,meteohub,2013-04-10 01:27:00,
2013-04-09 21:33:00,46.8,43.3,29.92,NE,45,1.0,7.0,88,0.00,,,0.02,meteohub,2013-04-10 01:33:00,
2013-04-09 21:38:00,46.8,43.3,29.93,NW,315,2.0,4.0,88,0.00,,,0.02,meteohub,2013-04-10 01:38:00,
2013-04-09 21:43:00,46.8,43.3,29.94,North,0,4.0,4.0,88,0.00,,,0.02,meteohub,2013-04-10 01:43:00,
2013-04-09 21:48:00,46.8,43.3,29.94,North,0,3.0,5.0,88,0.00,,,0.02,meteohub,2013-04-10 01:48:00,
2013-04-09 21:53:00,46.8,43.3,29.94,NE,45,3.0,5.0,88,0.00,,,0.02,meteohub,2013-04-10 01:53:00,
2013-04-09 21:58:00,46.8,43.3,29.95,NW,315,2.0,5.0,88,0.00,,,0.02,meteohub,2013-04-10 01:58:00,
2013-04-09 22:04:00,46.8,43.3,29.93,North,0,2.0,4.0,88,0.00,,,0.02,meteohub,2013-04-10 02:04:00,
2013-04-09 22:09:00,46.8,43.3,29.94,NW,315,0.0,4.0,88,0.00,,,0.02,meteohub,2013-04-10 02:09:00,
2013-04-09 22:14:00,46.8,43.3,29.93,East,90,0.0,4.0,88,0.00,,,0.02,meteohub,2013-04-10 02:14:00,
2013-04-09 22:19:00,46.8,43.3,29.93,North,0,3.0,3.0,88,0.00,,,0.02,meteohub,2013-04-10 02:19:00,
2013-04-09 22:25:00,46.8,43.3,29.93,North,0,2.0,4.0,88,0.00,,,0.02,meteohub,2013-04-10 02:25:00,
2013-04-09 22:30:00,46.6,43.2,29.93,North,0,2.0,4.0,88,0.00,,,0.02,meteohub,2013-04-10 02:30:00,
2013-04-09 22:35:00,46.6,43.2,29.94,NE,45,2.0,4.0,88,0.00,,,0.02,meteohub,2013-04-10 02:35:00,
2013-04-09 22:40:00,46.8,43.3,29.94,North,0,0.0,3.0,88,0.00,,,0.02,meteohub,2013-04-10 02:40:00,
2013-04-09 22:45:00,46.8,43.3,29.94,North,0,2.0,3.0,88,0.00,,,0.02,meteohub,2013-04-10 02:45:00,
2013-04-09 22:50:00,46.8,43.3,29.94,North,0,2.0,3.0,88,0.00,,,0.02,meteohub,2013-04-10 02:50:00,
2013-04-09 22:56:00,46.8,43.3,29.94,NE,45,2.0,3.0,88,0.00,,,0.02,meteohub,2013-04-10 02:56:00,
2013-04-09 23:01:00,46.8,43.3,29.94,North,0,2.0,2.0,88,0.00,,,0.02,meteohub,2013-04-10 03:01:00,
2013-04-09 23:06:00,46.8,43.3,29.94,NE,45,2.0,3.0,88,0.00,,,0.02,meteohub,2013-04-10 03:06:00,
2013-04-09 23:12:00,46.6,43.2,29.93,NE,45,2.0,3.0,88,0.00,,,0.02,meteohub,2013-04-10 03:12:00,
2013-04-09 23:17:00,46.6,43.2,29.94,NE,45,1.0,3.0,88,0.00,,,0.02,meteohub,2013-04-10 03:17:00,
2013-04-09 23:22:00,46.6,43.2,29.94,NE,45,1.0,4.0,88,0.00,,,0.02,meteohub,2013-04-10 03:22:00,
2013-04-09 23:27:00,46.6,43.2,29.94,NW,315,4.0,4.0,88,0.00,,,0.02,meteohub,2013-04-10 03:27:00,
2013-04-09 23:32:00,46.6,43.2,29.94,NE,45,3.0,4.0,88,0.00,,,0.02,meteohub,2013-04-10 03:32:00,
2013-04-09 23:37:00,46.4,43.0,29.94,NW,315,1.0,4.0,88,0.00,,,0.02,meteohub,2013-04-10 03:37:00,
2013-04-09 23:42:00,46.4,43.0,29.94,North,0,2.0,4.0,88,0.00,,,0.02,meteohub,2013-04-10 03:42:00,
2013-04-09 23:48:00,46.4,43.0,29.94,NE,45,1.0,3.0,88,0.00,,,0.02,meteohub,2013-04-10 03:48:00,
2013-04-09 23:53:00,46.2,43.2,29.94,North,0,2.0,3.0,89,0.00,,,0.02,meteohub,2013-04-10 03:53:00,
2013-04-09 23:58:00,46.2,43.2,29.95,NE,45,6.0,6.0,89,0.00,,,0.02,meteohub,2013-04-10 03:58:00,